Location: Knowlton
(51.2333°N, 1.2667°E)
Time: 10:41:08
(UTC+00:00)

ISS - Pass Details

Date: 29 September 2021
Orbit: 417 x 423 km, 51.6° (Epoch: 21 October)

Event Time Altitude Azimuth Distance (km) Brightness Sun altitude
Rises 18:11:26 0° 277° (W) 2,364 2.8 -6.2°
Reaches altitude 10° 18:13:32 10° 277° (W) 1,501 0.9 -6.6°
Maximum altitude 18:16:54 86° 5° (N) 426 -3.7 -7.1°
Enters shadow 18:20:15 10° 96° (E) 1,488 -1.7 -7.6°
